Date,TemperatureHighF,TemperatureAvgF,TemperatureLowF,DewpointHighF,DewpointAvgF,DewpointLowF,HumidityHigh,HumidityAvg,HumidityLow,PressureMaxIn,PressureMinIn,WindSpeedMaxMPH,WindSpeedAvgMPH,GustSpeedMaxMPH,PrecipitationSumIn
2012-1-1,50,43,35,48,42,33,98,94,91,29.99,29.91,7,1,9,0.03
2012-1-2,54,49,43,47,45,40,96,87,75,30.01,29.74,7,1,11,0.00
2012-1-3,48,44,39,40,36,31,89,74,57,30.18,29.80,17,3,21,0.00
2012-1-4,48,43,38,43,36,31,93,77,62,29.99,29.75,12,4,21,0.09
2012-1-5,44,40,37,39,35,31,94,82,71,29.85,29.07,13,6,26,0.25
2012-1-6,41,38,35,33,30,27,88,72,61,30.06,29.23,16,6,23,0.01
2012-1-7,39,37,34,36,33,29,93,85,73,30.08,29.81,11,4,18,0.11
2012-1-8,42,38,37,36,35,34,93,87,74,30.08,29.87,7,3,14,0.04
2012-1-9,40,38,36,37,35,33,96,90,77,30.26,30.08,7,2,11,0.09
2012-1-10,44,40,34,39,34,30,93,81,65,30.48,30.19,12,3,20,0.02
2012-1-11,47,40,32,39,36,30,99,85,71,30.47,30.40,7,2,12,0.00
2012-1-12,46,43,35,40,38,33,95,82,73,30.43,29.94,15,4,30,0.11
2012-1-13,39,35,32,35,32,30,96,90,72,30.07,29.98,18,4,22,0.07
2012-1-14,36,33,31,31,28,25,94,81,69,30.16,30.06,13,4,19,0.08
2012-1-15,35,31,25,28,24,20,90,75,58,30.27,30.14,11,2,14,0.01
2012-1-16,32,27,16,27,22,14,95,80,66,30.34,30.27,6,1,8,0.00
2012-1-17,36,33,30,32,30,26,95,88,82,30.39,30.26,4,1,9,0.04
2012-1-18,40,34,25,31,25,22,91,71,54,30.43,30.18,6,2,13,0.00
2012-1-19,44,38,34,42,35,26,96,92,62,30.18,29.79,10,2,17,0.65
2012-1-20,40,35,31,37,32,28,100,86,70,29.91,29.71,13,3,23,0.14
2012-1-21,40,34,30,39,31,27,97,89,76,29.96,29.48,12,2,16,0.31
2012-1-22,42,39,35,38,35,33,96,84,70,29.70,29.51,12,4,21,0.09
2012-1-23,44,39,36,38,34,31,91,81,61,29.90,29.61,17,4,18,0.05
2012-1-24,38,34,32,36,33,31,98,94,87,30.16,29.90,8,1,10,0.07
2012-1-25,37,33,31,32,29,26,98,88,73,30.24,30.17,7,0,7,0.04
2012-1-26,33,28,20,27,23,18,94,82,68,30.29,30.23,5,1,8,0.00
2012-1-27,32,24,15,25,20,13,95,86,71,30.37,30.28,6,1,7,0.02
2012-1-28,31,27,23,27,24,21,93,86,78,30.39,30.36,7,1,9,0.00
2012-1-29,33,28,22,26,23,20,92,80,71,30.42,30.36,8,2,14,0.00
2012-1-30,36,26,19,20,16,10,87,70,36,30.42,30.37,12,2,14,0.00
2012-1-31,30,21,14,18,13,11,87,74,51,30.40,30.31,13,2,21,0.00
2012-2-1,26,17,11,11,7,3,83,66,41,30.46,30.37,11,2,13,0.00
2012-2-2,20,11,3,4,2,-1,93,68,38,30.55,30.46,11,2,13,0.00
2012-2-3,18,7,-2,6,1,-5,88,77,57,30.64,30.53,5,1,8,0.00
2012-2-4,20,8,-1,10,3,-5,90,80,58,30.66,30.60,5,0,10,0.00
2012-2-5,18,6,0,11,3,-3,99,85,71,30.64,30.56,5,0,8,0.00
2012-2-6,16,7,-4,6,0,-7,88,75,52,30.59,30.53,7,1,10,0.00
2012-2-7,15,11,8,10,6,2,85,80,74,30.64,30.52,8,2,15,0.00
2012-2-8,24,12,4,13,7,1,91,82,59,30.68,30.58,4,0,6,0.01
2012-2-9,23,15,2,20,12,0,91,88,83,30.58,30.37,6,1,9,0.00
2012-2-10,20,10,-1,12,6,-4,91,81,65,30.69,30.57,6,1,8,0.03
2012-2-11,18,3,-9,8,-2,-13,89,79,58,30.65,30.52,6,0,8,0.00
2012-2-12,25,4,-10,10,-2,-14,89,77,48,30.56,30.36,5,0,6,0.00
2012-2-13,25,17,-1,20,12,-4,90,84,77,30.36,30.06,7,1,9,0.00
2012-2-14,32,26,20,28,21,17,92,82,68,30.07,29.73,6,1,10,0.01
2012-2-15,39,35,32,32,28,23,91,78,62,29.77,29.35,19,7,30,0.06
2012-2-16,37,32,27,30,23,18,87,69,50,30.18,29.77,14,4,21,0.00
2012-2-17,40,36,32,37,34,30,98,93,88,30.12,30.03,9,2,12,0.17
2012-2-18,41,34,31,39,33,31,99,97,87,30.12,30.08,6,0,9,0.01
2012-2-20,22,21,20,20,19,18,94,93,91,30.56,30.55,0,0,1,0.01
2012-2-21,40,29,15,30,23,14,100,79,57,30.55,30.41,9,1,13,0.00
2012-2-22,44,36,30,38,33,28,97,89,78,30.47,30.22,10,1,12,0.02
2012-2-23,44,40,33,40,34,28,96,79,56,30.22,30.06,13,4,18,0.01
2012-2-24,52,46,41,45,42,38,92,85,75,30.20,30.08,11,4,20,0.00
2012-2-25,51,44,39,44,35,31,89,71,48,30.15,30.01,15,4,18,0.00
2012-2-26,43,36,24,36,32,22,95,84,69,30.24,29.98,12,3,18,0.11
2012-2-27,42,31,19,32,25,17,97,80,52,30.30,30.18,8,1,14,0.02
2012-2-28,46,41,38,42,38,32,93,87,80,30.19,30.02,9,3,11,0.05
2012-2-29,55,49,44,48,45,42,95,87,76,30.23,30.04,8,1,10,0.00
2012-3-1,58,47,34,50,44,33,98,89,69,30.25,30.20,6,1,9,0.00
2012-3-2,55,41,33,45,38,32,99,90,65,30.33,30.24,5,0,9,0.00
2012-3-3,48,36,27,36,27,22,98,75,38,30.35,30.27,6,1,12,0.01
2012-3-4,48,36,28,31,27,24,89,72,42,30.29,30.12,5,1,8,0.00
2012-3-5,49,34,21,28,24,20,95,72,39,30.23,30.10,6,1,9,0.00
2012-3-6,44,31,21,32,23,18,96,77,36,30.41,30.23,6,1,11,0.01
2012-3-7,46,32,17,25,21,15,100,69,40,30.41,30.03,8,1,9,0.00
2012-3-8,41,37,33,39,33,24,96,85,61,30.47,29.98,9,2,15,0.11
2012-3-9,50,35,24,35,28,23,97,77,39,30.64,30.47,6,1,10,0.00
2012-3-10,53,38,24,38,30,22,96,75,50,30.62,30.42,8,2,15,0.01
2012-3-11,46,44,41,40,38,36,94,80,73,30.32,30.29,12,4,15,0.01
2012-3-12,48,45,41,42,41,40,96,86,76,30.34,30.24,10,2,16,0.01
2012-3-13,48,45,43,41,39,37,87,80,70,30.39,30.34,8,2,13,0.00
2012-3-14,45,42,40,38,37,36,89,82,73,30.45,30.36,9,2,10,0.00
2012-3-15,53,42,29,39,35,27,94,79,55,30.45,30.33,6,0,11,0.00
2012-3-16,71,44,24,45,33,23,97,72,28,30.34,30.14,6,1,10,0.01
2012-3-17,73,48,27,42,34,26,98,67,24,30.16,29.96,9,1,12,0.00
2012-3-18,70,49,29,47,36,28,97,70,27,30.04,29.86,13,1,14,0.00
2012-3-19,52,42,28,42,35,26,96,77,43,30.52,30.05,8,2,14,0.11
2012-3-20,58,37,22,35,26,20,96,71,24,30.59,30.49,6,1,10,0.00
2012-3-21,64,44,26,39,33,24,95,69,36,30.60,30.50,5,1,8,0.00
2012-3-22,61,45,31,48,39,30,97,83,57,30.54,30.39,7,0,9,0.00
2012-3-23,64,48,35,49,41,34,98,80,49,30.38,30.24,5,0,10,0.00
2012-3-24,66,50,34,47,40,33,98,72,36,30.30,30.21,6,1,11,0.00
2012-3-25,66,48,31,45,34,28,98,66,24,30.40,30.29,9,1,19,0.00
2012-3-26,59,44,31,38,30,20,96,63,23,30.51,30.40,7,1,11,0.00
2012-3-27,66,45,26,43,34,24,93,68,38,30.49,30.31,14,2,16,0.00
2012-3-28,68,51,33,47,38,32,98,67,34,30.38,30.09,12,2,16,0.00
2012-3-29,52,49,42,38,36,33,84,63,52,30.09,29.84,14,5,21,0.02
2012-3-30,49,45,41,44,40,35,98,85,71,29.86,29.78,17,4,20,0.14
2012-3-31,49,44,33,41,36,27,82,71,58,29.86,29.57,15,6,24,0.02
2012-4-1,49,39,32,28,25,19,80,59,32,30.00,29.84,11,3,14,0.00
2012-4-2,53,44,33,37,32,24,86,64,54,29.85,29.75,9,2,15,0.00
2012-4-3,51,41,37,39,36,34,92,83,63,29.76,29.60,3,0,6,0.00
2012-4-4,65,51,37,47,40,34,93,69,37,29.86,29.60,15,2,21,0.00
2012-4-5,46,44,39,42,40,38,94,87,78,29.95,29.87,7,1,11,0.17
2012-4-6,43,40,37,40,37,35,94,90,85,29.93,29.70,5,0,8,0.01
2012-4-7,45,38,30,38,32,25,96,80,52,29.70,29.58,9,2,15,0.04
2012-4-8,39,33,24,27,22,17,85,65,42,29.99,29.69,10,2,16,0.00
2012-4-9,53,37,17,34,25,15,95,67,36,29.99,29.72,12,2,17,0.00
2012-4-10,62,48,34,44,36,31,94,67,41,29.72,29.49,12,2,16,0.03
2012-4-11,62,49,36,47,36,31,89,65,43,29.51,29.43,6,1,10,0.01
2012-4-12,53,44,36,45,40,35,96,88,64,29.61,29.51,7,2,11,0.72
2012-4-13,56,45,34,43,37,33,99,77,46,29.67,29.61,9,1,11,0.00
2012-4-14,58,45,31,41,35,30,97,72,42,29.66,29.55,8,1,11,0.00
2012-4-15,50,46,44,45,41,38,95,84,71,29.67,29.56,10,2,18,0.17
2012-4-16,46,42,34,43,37,30,95,83,54,30.01,29.67,9,2,15,0.13
2012-4-17,51,39,28,34,29,26,97,70,40,30.01,29.73,6,1,12,0.00
2012-4-18,55,42,25,37,30,24,96,68,41,29.73,29.42,7,1,11,0.00
2012-4-19,60,46,32,46,38,30,100,77,50,29.42,29.30,7,1,11,0.08
2012-4-20,60,47,36,48,41,36,99,83,56,29.54,29.35,9,1,12,0.01
2012-4-21,62,48,38,43,39,35,98,74,37,29.64,29.54,13,2,16,0.00
2012-4-22,57,47,36,42,40,34,95,77,47,29.79,29.61,10,2,14,0.02
2012-4-23,60,47,33,44,36,31,97,70,38,29.80,29.59,11,2,12,0.02
2012-4-24,62,47,32,46,40,31,98,80,47,29.59,29.38,12,2,12,0.30
2012-4-25,64,51,42,44,41,35,94,72,37,29.74,29.52,12,2,18,0.00
2012-4-26,76,58,35,47,42,34,97,62,32,29.88,29.71,8,2,14,0.00
2012-4-27,82,62,42,54,48,40,96,65,31,30.03,29.88,6,1,10,0.00
2012-4-28,55,50,45,50,47,44,95,91,83,30.04,30.03,3,0,6,0.00
2012-4-29,87,76,54,52,46,38,82,39,18,29.79,29.70,10,3,15,0.00
2012-4-30,80,64,47,59,53,45,94,69,47,29.94,29.79,7,1,18,0.00
2012-5-1,85,66,48,56,51,46,98,65,28,29.92,29.86,8,1,9,0.00
2012-5-2,84,64,46,65,53,45,98,72,30,29.91,29.75,10,1,15,0.11
2012-5-3,72,61,51,60,55,50,98,82,61,29.80,29.73,9,1,13,0.02
2012-5-4,74,59,44,54,47,42,99,69,32,29.75,29.59,6,1,9,0.00
2012-5-5,75,56,39,54,47,38,98,75,35,29.67,29.58,14,1,29,0.02
2012-5-6,62,53,44,54,49,42,99,88,66,29.89,29.67,6,1,11,0.09
2012-5-7,62,53,46,55,50,45,98,88,67,30.07,29.88,5,0,8,0.12
2012-5-8,71,55,43,54,47,42,99,77,37,30.07,29.94,9,1,11,0.01
2012-5-9,77,60,42,56,49,42,98,71,38,30.09,29.97,6,1,9,0.00
2012-5-10,81,65,47,60,54,46,99,72,39,30.18,30.09,8,1,10,0.00
2012-5-11,89,70,50,63,57,49,98,69,34,30.18,30.03,6,1,9,0.00
2012-5-12,68,54,40,62,48,36,97,80,49,30.42,30.06,9,2,17,0.28
2012-5-13,51,43,33,40,35,32,98,76,54,30.43,30.31,6,1,12,0.00
2012-5-14,60,46,30,43,37,29,98,75,47,30.31,30.01,6,1,9,0.00
2012-5-15,66,51,40,49,41,35,95,74,32,30.00,29.69,8,1,18,0.05
2012-5-16,53,48,41,44,41,36,95,78,58,30.13,29.81,9,2,16,0.02
2012-5-17,57,45,33,38,33,29,97,67,35,30.20,30.11,9,2,15,0.00
2012-5-18,62,47,29,40,33,27,96,63,34,30.11,29.93,15,2,18,0.00
2012-5-19,76,57,36,48,41,34,94,61,33,30.01,29.86,8,1,11,0.00
2012-5-20,80,63,41,52,47,40,95,60,32,29.87,29.64,11,2,15,0.00
2012-5-21,81,68,50,56,52,47,92,59,37,29.64,29.54,15,4,27,0.00
2012-5-22,82,70,60,62,57,53,88,65,40,29.82,29.59,11,2,16,0.00
2012-5-23,85,70,50,62,54,48,99,63,29,30.09,29.82,8,1,12,0.00
2012-5-24,78,68,54,63,52,43,92,61,31,30.22,30.09,10,1,17,0.00
2012-5-25,72,60,43,48,44,41,95,59,35,30.24,30.14,12,1,15,0.00
2012-5-26,73,58,39,48,42,38,96,60,32,30.18,30.09,9,1,13,0.00
2012-5-27,74,60,42,51,44,39,100,61,29,30.12,29.98,7,1,9,0.00
2012-5-28,72,65,51,58,53,49,94,66,48,29.90,29.83,5,1,11,0.01
2012-5-29,78,62,41,55,47,40,99,64,33,29.89,29.79,10,1,15,0.01
2012-5-30,75,62,44,56,48,42,96,65,41,30.03,29.90,8,1,14,0.00
2012-5-31,75,62,47,58,51,45,96,70,41,30.06,29.81,9,1,12,0.16
2012-6-1,66,56,46,57,52,45,96,85,58,29.97,29.76,12,2,18,0.50
2012-6-2,67,54,40,50,45,40,99,74,47,29.98,29.89,10,2,15,0.00
2012-6-3,73,58,39,61,50,38,98,77,46,29.92,29.60,7,1,11,0.04
2012-6-4,69,62,56,59,55,51,97,80,57,29.79,29.70,6,1,11,0.00
2012-6-5,59,52,40,52,45,38,93,76,60,30.05,29.73,10,2,21,0.00
2012-6-6,67,51,32,55,42,31,98,77,46,30.04,29.77,6,1,11,0.02
2012-6-7,79,64,47,58,52,46,99,69,36,29.83,29.62,7,1,11,0.00
2012-6-8,80,66,58,62,59,55,94,80,51,29.88,29.66,9,1,12,0.07
2012-6-9,72,64,54,58,54,50,93,73,49,29.95,29.88,9,2,11,0.00
2012-6-10,61,54,47,57,52,46,98,92,78,29.91,29.75,4,0,7,0.17
2012-6-11,70,59,50,57,53,50,100,84,52,29.75,29.60,7,1,12,0.03
2012-6-12,70,59,50,59,54,49,100,85,54,29.62,29.52,6,1,8,0.13
2012-6-13,65,58,53,58,56,52,99,92,71,29.95,29.61,7,1,13,0.06
2012-6-14,58,55,50,55,53,50,100,94,84,30.11,29.95,4,0,6,0.28
2012-6-15,79,61,45,60,52,44,100,77,41,30.14,30.02,7,1,12,0.01
2012-6-16,92,71,50,66,57,50,99,67,29,30.05,29.90,9,1,13,0.00
2012-6-17,84,70,57,60,57,54,93,65,37,30.16,29.95,7,1,14,0.00
2012-6-18,94,74,54,66,60,52,95,66,30,30.12,29.86,8,1,14,0.00
2012-6-19,79,68,60,65,60,55,95,78,56,30.13,29.96,7,1,9,0.05
2012-6-20,87,71,60,69,63,58,98,79,43,29.96,29.79,7,1,15,0.52
2012-6-21,79,67,60,67,63,58,99,88,58,29.84,29.77,6,0,8,0.04
2012-6-22,79,67,54,62,55,47,99,70,36,30.14,29.84,8,2,12,0.00
2012-6-23,79,63,46,55,49,44,99,66,35,30.21,30.12,8,1,14,0.00
2012-6-24,83,68,50,56,50,45,96,60,30,30.17,29.81,10,2,15,0.00
2012-6-25,70,63,58,54,49,45,73,60,44,29.99,29.83,11,3,18,0.00
2012-6-26,71,61,50,51,49,46,93,67,43,30.13,29.99,10,2,17,0.02
2012-6-27,79,62,41,61,50,40,98,70,31,30.14,29.93,10,1,13,0.06
2012-6-28,84,71,60,63,60,56,99,72,41,29.94,29.83,6,1,8,0.02
2012-6-29,91,75,60,65,60,57,93,65,35,29.87,29.77,8,1,12,0.00
2012-6-30,94,77,60,70,65,59,98,70,37,29.92,29.78,7,1,11,0.00
2012-7-1,84,74,62,68,62,57,96,69,45,30.12,29.77,9,2,24,0.70
2012-7-2,78,68,58,67,62,57,99,83,65,30.11,29.89,9,1,23,1.17
2012-7-3,76,66,61,67,64,60,100,93,73,30.07,29.94,6,0,10,0.69
2012-7-4,79,69,61,66,64,61,100,84,61,29.99,29.86,6,0,9,0.01
2012-7-5,88,71,59,72,65,58,100,82,49,29.89,29.71,11,1,12,0.03
2012-7-6,87,72,61,70,64,61,100,77,42,29.84,29.76,5,0,11,0.02
2012-7-7,77,68,60,68,64,60,100,88,66,29.91,29.83,4,0,6,0.58
2012-7-8,84,70,57,70,61,57,100,78,45,29.91,29.74,7,1,11,0.02
2012-7-9,78,67,54,60,56,51,100,71,40,29.92,29.84,9,1,14,0.00
2012-7-10,81,67,54,66,58,53,99,78,42,29.93,29.84,7,1,14,0.11
2012-7-11,77,65,54,63,56,49,99,74,41,29.92,29.85,9,1,15,0.00
2012-7-12,71,60,48,57,52,46,96,76,48,30.00,29.88,10,2,22,0.11
2012-7-13,67,55,43,58,51,42,99,88,67,30.01,29.73,6,0,10,0.03
2012-7-14,74,64,52,60,54,48,99,73,46,29.84,29.62,10,2,17,0.02
2012-7-15,72,58,48,59,52,46,98,83,52,30.02,29.83,8,1,15,0.24
2012-7-16,67,57,50,58,52,48,98,86,60,30.20,30.02,10,1,17,0.03
2012-7-17,66,59,53,62,55,50,97,88,78,30.19,30.04,7,2,11,0.28
2012-7-18,77,65,56,63,58,55,98,80,53,30.14,29.83,5,1,15,0.01
2012-7-19,77,67,56,62,56,51,96,70,45,29.84,29.73,8,2,20,0.00
2012-7-20,70,62,57,56,53,50,89,72,54,29.98,29.84,7,1,13,0.00
2012-7-21,69,59,54,57,54,52,97,85,58,30.16,29.97,5,0,10,0.11
2012-7-22,67,56,47,55,52,46,99,86,59,30.37,30.16,5,0,9,0.11
2012-7-23,77,60,43,56,49,43,100,72,39,30.40,30.23,9,1,13,0.01
2012-7-24,86,68,49,63,56,48,98,70,43,30.23,29.98,7,1,13,0.00
2012-7-25,76,66,57,68,63,56,98,89,72,29.98,29.89,5,0,7,0.06
2012-7-26,89,74,63,72,65,62,100,79,47,29.96,29.90,6,0,9,0.02
2012-7-27,91,75,59,71,64,58,100,72,37,29.97,29.80,5,1,8,0.00
2012-7-28,92,74,59,68,63,58,99,72,38,29.80,29.70,8,1,12,0.00
2012-7-29,78,69,57,67,63,55,97,82,60,29.95,29.74,7,1,14,0.03
2012-7-30,76,64,48,59,52,46,99,70,37,30.05,29.95,12,1,12,0.02
2012-7-31,78,66,56,59,55,49,98,72,42,30.08,30.00,5,0,8,0.00
2012-8-1,85,70,55,60,57,54,97,67,37,30.05,29.90,7,0,9,0.00
2012-8-2,92,73,54,65,59,53,97,66,33,29.91,29.84,6,1,8,0.00
2012-8-3,82,70,59,70,62,57,96,79,50,29.98,29.91,6,1,11,0.30
2012-8-4,84,68,53,64,58,52,99,73,39,29.98,29.86,6,1,12,0.01
2012-8-5,88,71,56,65,60,55,97,72,36,29.89,29.74,7,1,9,0.01
2012-8-6,86,71,61,65,61,58,97,74,42,29.96,29.75,9,1,11,0.25
2012-8-7,73,64,56,62,57,54,96,78,52,30.15,29.94,17,2,20,0.02
2012-8-8,74,62,51,57,53,50,98,75,46,30.19,30.14,6,1,10,0.00
2012-8-9,76,60,46,62,53,45,99,81,43,30.21,30.14,7,1,16,0.29
2012-8-10,70,61,52,59,54,48,100,79,50,30.23,30.15,9,1,12,0.00
2012-8-11,66,57,49,54,50,47,96,79,55,30.17,30.12,8,1,12,0.02
2012-8-12,74,59,44,55,48,43,99,71,39,30.13,29.99,11,1,12,0.01
2012-8-13,74,58,43,54,47,42,98,70,34,30.05,29.97,7,1,11,0.00
2012-8-14,78,59,39,51,45,38,98,66,30,30.02,29.94,7,1,10,0.00
2012-8-15,82,64,42,54,47,41,98,63,26,30.01,29.88,5,1,9,0.00
2012-8-16,75,61,47,63,55,46,97,81,49,30.13,29.92,5,1,10,0.13
2012-8-17,72,58,54,58,56,53,99,92,54,30.17,30.11,5,0,5,0.00
2012-8-18,86,67,47,60,54,46,99,69,34,30.20,30.13,8,0,8,0.01
2012-8-19,96,72,50,61,55,50,99,64,22,30.20,30.05,8,1,11,0.00
2012-8-20,102,78,53,66,56,49,97,58,18,30.09,29.93,5,1,9,0.00
2012-8-21,90,77,66,68,64,59,96,68,37,30.11,29.91,8,1,11,0.03
2012-8-22,85,70,60,71,65,59,98,84,52,29.97,29.84,9,1,13,0.14
2012-8-23,85,68,54,61,54,47,100,67,27,29.99,29.84,5,1,9,0.01
2012-8-24,84,68,54,64,59,52,97,76,47,29.86,29.72,9,1,14,0.05
2012-8-25,83,70,62,64,61,58,93,74,44,29.81,29.73,7,1,11,0.02
2012-8-26,75,65,58,63,56,48,96,76,39,29.96,29.76,9,2,13,0.22
2012-8-27,73,62,50,58,53,48,93,76,47,30.14,29.97,7,1,10,0.00
2012-8-28,83,62,43,56,50,42,99,69,29,30.14,30.00,7,1,13,0.01
2012-8-29,85,69,58,62,57,53,98,71,36,30.11,30.01,5,1,9,0.02
2012-8-30,86,65,50,63,57,49,99,79,38,30.04,29.89,13,1,19,1.09
2012-8-31,61,58,55,60,58,55,99,98,94,30.08,29.90,7,1,11,0.54
2012-9-1,65,59,54,59,56,54,100,93,79,30.24,30.07,8,1,14,0.00
2012-9-2,67,59,54,60,56,53,100,90,72,30.25,30.17,12,2,14,0.01
2012-9-3,72,62,53,61,57,52,100,85,65,30.22,30.13,8,2,14,0.00
2012-9-4,75,60,50,61,55,50,100,84,53,30.17,30.07,8,1,11,0.01
2012-9-5,76,61,49,61,55,48,100,82,51,30.10,30.01,12,1,15,0.01
2012-9-6,66,58,44,58,50,43,98,77,49,30.27,30.11,15,3,19,0.06
2012-9-7,75,56,38,57,48,37,99,76,39,30.27,30.13,10,2,16,0.01
2012-9-8,78,64,50,61,54,48,96,75,49,30.18,30.06,11,2,15,0.00
2012-9-9,81,63,47,62,55,46,99,78,45,30.13,29.98,10,2,14,0.00
2012-9-10,85,65,48,63,56,47,99,77,44,30.03,29.96,9,2,12,0.01
2012-9-11,84,67,51,64,57,50,99,74,37,30.00,29.79,15,2,33,0.01
2012-9-12,62,57,50,61,55,49,98,93,86,29.86,29.76,8,2,16,0.27
2012-9-13,61,52,42,51,48,41,99,89,61,30.07,29.84,12,2,16,0.06
2012-9-14,65,52,40,52,45,39,100,79,47,30.08,29.85,11,2,17,0.01
2012-9-15,62,55,46,52,48,45,97,79,61,30.10,29.85,12,3,16,0.01
2012-9-16,69,56,43,53,48,42,99,80,50,30.11,29.99,13,2,15,0.01
2012-9-17,71,54,39,60,49,38,99,85,56,29.99,29.94,6,2,9,0.02
2012-9-18,79,59,46,61,53,45,100,82,46,29.97,29.79,10,1,14,0.01
2012-9-19,58,53,42,57,49,41,98,87,59,30.12,29.77,14,2,20,0.22
2012-9-20,61,47,35,46,41,34,99,82,49,30.23,30.12,10,2,14,0.01
2012-9-21,62,47,36,47,41,35,99,81,45,30.23,29.92,9,2,13,0.00
2012-9-22,64,51,39,56,46,38,99,87,51,30.10,29.82,12,3,20,0.24
2012-9-23,61,47,35,47,41,34,99,84,51,30.12,29.86,8,1,9,0.00
2012-9-24,66,54,42,59,50,41,98,88,66,29.86,29.54,8,2,11,0.02
2012-9-25,73,58,43,56,51,42,99,80,45,29.73,29.64,10,3,15,0.02
2012-9-26,75,59,45,62,54,44,99,85,58,29.65,29.57,7,2,11,0.00
2012-9-27,65,57,53,57,52,49,99,85,61,29.93,29.51,19,3,19,0.07
2012-9-28,65,55,43,53,49,43,97,81,54,30.10,29.92,10,2,13,0.03
2012-9-29,63,50,39,55,47,38,99,90,61,30.08,29.96,5,1,6,0.03
2012-9-30,64,51,43,51,46,42,100,87,55,30.22,30.06,6,1,8,0.01
2012-10-1,59,49,40,52,47,40,99,92,75,30.15,30.01,7,1,9,0.03
2012-10-2,68,53,41,56,48,40,100,86,45,30.08,30.01,8,1,12,0.00
2012-10-3,69,51,35,54,45,34,100,83,51,30.06,29.96,9,1,15,0.01
2012-10-4,68,53,45,55,48,44,99,86,54,30.04,29.72,14,3,27,0.18
2012-10-5,65,52,36,55,47,36,99,84,65,30.09,29.87,12,3,18,0.01
2012-10-6,74,64,55,58,53,47,91,70,47,29.95,29.79,16,4,24,0.01
2012-10-7,55,49,44,52,46,42,100,92,76,30.14,29.83,7,2,12,0.57
2012-10-8,56,45,35,44,39,34,98,82,50,30.17,29.96,8,2,13,0.00
2012-10-9,58,42,32,48,38,31,99,87,57,29.97,29.80,14,2,20,0.00
2012-10-10,53,41,30,43,36,30,99,85,59,29.99,29.92,8,1,11,0.01
2012-10-11,56,41,29,43,36,28,98,84,54,30.02,29.91,7,1,10,0.01
2012-10-12,53,41,28,49,39,27,98,94,78,29.93,29.82,8,2,11,0.18
2012-10-13,59,47,34,48,42,34,99,86,52,30.01,29.76,8,2,12,0.01
2012-10-14,57,44,34,48,41,33,99,90,65,29.76,29.55,7,1,10,0.01
2012-10-15,53,44,37,48,41,36,99,91,79,29.91,29.54,9,2,16,0.01
2012-10-16,53,44,35,44,40,34,98,88,68,29.93,29.83,7,1,11,0.00
2012-10-17,63,46,31,50,41,30,99,86,59,30.06,29.93,10,2,13,0.01
2012-10-18,63,49,36,54,45,35,100,88,69,30.09,30.00,11,3,14,0.01
2012-10-19,59,50,44,52,48,43,99,93,78,30.10,30.03,7,2,9,0.00
2012-10-20,51,47,44,49,47,44,100,98,94,30.15,30.08,5,1,6,0.01
2012-10-21,49,47,46,48,47,46,99,98,96,30.17,30.10,4,0,6,0.02
2012-10-22,52,49,47,50,48,46,99,96,90,30.25,30.16,8,1,8,0.00
2012-10-23,53,50,47,50,49,46,99,95,89,30.28,30.23,6,1,8,0.00
2012-10-24,47,46,46,46,45,44,98,96,93,30.23,30.06,4,1,5,0.01
2012-10-25,51,48,45,47,45,44,97,92,83,30.06,29.82,7,2,12,0.00
2012-10-26,46,41,38,44,38,35,98,88,71,29.90,29.56,10,2,15,0.06
2012-10-27,38,34,31,37,33,29,98,96,93,29.70,29.32,11,2,18,0.24
2012-10-28,40,33,27,34,31,26,98,93,78,30.03,29.69,7,2,12,0.28
2012-10-29,36,31,25,33,29,24,100,94,86,30.04,29.88,5,1,8,0.04
2012-10-30,42,36,25,37,33,24,97,89,82,29.88,29.68,13,2,15,0.02
2012-10-31,53,42,33,41,37,32,99,83,59,29.76,29.52,12,3,16,0.00
2012-11-1,46,42,33,42,38,32,97,89,77,29.53,29.26,19,3,26,0.06
2012-11-2,52,42,32,42,37,32,100,86,59,29.70,29.42,12,3,17,0.01
2012-11-3,59,50,45,47,42,39,86,76,58,29.73,29.62,12,3,15,0.00
2012-11-4,54,48,44,46,44,41,98,85,64,29.77,29.50,7,2,12,0.16
2012-11-5,50,45,40,46,43,38,98,92,78,29.74,29.51,9,2,13,0.34
2012-11-6,46,40,36,40,37,34,97,89,73,30.09,29.73,12,3,17,0.10
2012-11-7,48,44,37,43,40,34,93,86,80,30.26,30.02,14,5,20,0.01
2012-11-8,48,46,44,43,41,40,88,82,77,30.23,30.02,11,3,15,0.00
2012-11-9,52,43,30,43,39,29,97,87,71,30.12,29.99,8,2,12,0.01
2012-11-10,49,37,29,42,35,28,99,93,76,29.98,29.75,10,3,13,0.01
2012-11-11,45,41,34,44,40,34,98,97,93,30.08,29.76,8,1,10,0.02
2012-11-12,50,46,42,48,45,41,100,97,89,30.37,30.07,6,1,7,0.01
2012-11-13,51,41,29,43,37,28,98,87,62,30.53,30.37,8,2,9,0.00
2012-11-14,45,31,25,39,29,24,98,94,68,30.53,30.41,7,2,9,0.01
2012-11-15,36,33,28,35,32,27,100,97,91,30.41,30.21,6,1,8,0.00
2012-11-16,41,38,36,38,36,35,97,92,86,30.21,30.09,9,2,9,0.01
2012-11-17,42,41,39,38,37,35,93,85,81,30.09,29.94,8,3,11,0.00
2012-11-18,43,38,36,38,36,33,95,90,83,30.05,29.94,6,1,9,0.00
2012-11-19,49,40,33,43,37,32,98,92,74,30.15,30.05,7,2,9,0.00
2012-11-20,48,40,34,44,39,33,99,96,84,30.17,30.12,8,1,9,0.00
2012-11-21,45,41,34,44,40,33,100,96,89,30.16,30.07,6,1,9,0.00
2012-11-22,47,43,41,43,41,38,100,90,84,30.27,30.15,6,2,9,0.00
2012-11-23,47,42,35,44,40,34,99,94,86,30.23,30.14,8,1,10,0.00
2012-11-24,52,40,35,44,38,34,98,92,72,30.18,30.08,8,1,11,0.00
2012-11-25,52,44,37,45,41,35,98,89,75,30.09,29.96,7,1,9,0.00
2012-11-26,49,40,30,43,38,29,98,92,82,30.03,29.76,8,2,12,0.01
2012-11-27,44,43,42,42,42,41,98,96,93,29.76,29.67,5,0,7,0.01
2012-11-28,45,44,42,44,43,42,99,98,94,29.67,29.35,12,1,18,0.04
2012-11-29,44,38,34,43,37,33,98,97,95,29.51,29.15,14,4,20,0.66
2012-11-30,36,33,30,34,32,29,98,93,86,29.88,29.51,5,2,11,0.01
2012-12-1,38,29,22,31,26,21,98,92,68,29.98,29.88,5,1,7,0.00
2012-12-2,32,28,22,30,26,20,97,91,83,29.95,29.84,12,1,12,0.00
2012-12-3,36,32,27,30,28,25,94,87,72,29.97,29.71,13,2,20,0.00
2012-12-4,39,35,32,36,32,27,97,90,78,29.70,29.46,6,2,9,0.04
2012-12-5,36,33,29,33,30,28,97,91,81,29.68,29.45,6,1,10,0.01
2012-12-6,33,29,22,32,24,17,98,84,64,30.01,29.65,15,4,27,0.01
2012-12-7,32,21,13,24,17,11,95,87,71,30.00,29.81,8,1,11,0.00
2012-12-8,28,19,15,22,16,13,95,89,77,30.25,29.92,8,2,9,0.00
2012-12-9,31,23,14,28,20,12,95,89,74,30.24,29.76,14,3,15,0.00
2012-12-10,37,33,30,34,31,27,97,93,88,29.78,29.62,9,2,10,0.05
2012-12-11,32,27,21,31,24,19,96,90,86,30.16,29.78,12,3,15,0.01
2012-12-12,26,19,8,22,16,5,95,90,85,30.22,30.13,7,1,8,0.00
2012-12-13,31,23,17,25,20,15,100,89,78,30.13,29.98,6,1,8,0.03
2012-12-14,30,24,19,22,20,17,94,85,72,29.99,29.76,9,2,11,0.01
2012-12-15,33,29,21,31,27,19,98,94,91,29.84,29.71,7,1,9,0.07
2012-12-16,43,36,28,40,35,27,99,95,86,29.84,29.79,6,1,11,0.24
2012-12-17,39,34,31,39,34,30,100,99,96,29.81,29.77,4,0,5,0.05
2012-12-18,39,35,32,39,35,32,100,99,99,30.07,29.80,4,0,5,0.07
2012-12-19,42,36,32,40,35,32,100,98,89,30.28,30.07,4,0,6,0.07
2012-12-20,36,33,31,35,32,28,100,95,89,30.26,29.98,7,2,11,0.00
2012-12-21,31,30,29,29,28,26,93,90,86,30.06,29.93,10,2,10,0.00
2012-12-22,35,33,30,33,31,29,98,94,90,30.16,29.96,4,1,6,0.02
2012-12-23,50,37,33,49,37,32,100,98,95,29.96,29.80,6,2,11,0.72
2012-12-24,54,47,33,49,44,33,98,89,76,29.88,29.76,6,2,12,0.01
2012-12-25,50,37,30,43,35,29,100,95,73,29.80,29.66,13,2,21,0.00
2012-12-26,48,45,40,42,40,36,91,83,77,29.93,29.79,12,4,20,0.03
2012-12-27,48,44,40,42,40,36,97,84,76,29.90,29.66,14,3,22,0.11
2012-12-28,43,34,24,42,32,23,99,93,77,30.44,29.75,11,2,15,0.30
2012-12-29,43,30,23,38,28,22,98,94,76,30.42,30.09,9,2,11,0.01
2012-12-30,40,31,24,38,30,23,100,95,85,30.20,30.08,7,1,13,0.01
2012-12-31,47,39,30,38,34,29,96,84,70,30.20,29.92,12,3,18,0.00
2013-1-1,43,34,24,39,31,23,98,89,72,29.91,29.79,5,1,7,0.00